When you browse on this site, cookies collect data to enhance your experience and personalize the content and advertising you see.
Visit our Privacy Policy to learn more. By continuing to use the site, you agree to this use of cookies and data.
  • En España
  • Lista de países
  • Para 7 días
  • Temperatura del agua
  • Mapa Satelital
  • El tiempo en el mapa
  • Informadores
  • user-avatar
    Iniciar sesión

    Tiempo cada hora Kamarang

    Hoy, 22 Mayo, Miércoles

    Tiempo Temperatura Precipitaciones Viento Presión Humedad
    00:00 +21°C° 0.1 mm 0 mps 714 mmHg 98%
    01:00 +21°C° 0.1 mm 0 mps 713 mmHg 98%
    02:00 +21°C° 0.1 mm 0 mps 713 mmHg 98%
    03:00 +21°C° 0 mm 0 mps 713 mmHg 98%
    04:00 +21°C° 0 mm 0 mps 713 mmHg 98%
    05:00 +21°C° 0 mm 0 mps 713 mmHg 98%
    06:00 +22°C° 0 mm 0 mps 713 mmHg 94%
    07:00 +22°C° 0 mm 0 mps 714 mmHg 90%
    08:00 +23°C° 0 mm 0 mps 714 mmHg 85%
    09:00 +25°C° 0.2 mm 0 mps 715 mmHg 78%
    10:00 +28°C° 0.2 mm 1 mps 715 mmHg 70%
    11:00 +30°C° 0.2 mm 1 mps 715 mmHg 62%
    12:00 +30°C° 0.5 mm 1 mps 714 mmHg 64%
    13:00 +30°C° 0.5 mm 1 mps 714 mmHg 65%
    14:00 +30°C° 0.5 mm 2 mps 713 mmHg 66%
    15:00 +28°C° 0.5 mm 1 mps 713 mmHg 74%
    16:00 +27°C° 0.5 mm 1 mps 712 mmHg 81%
    17:00 +25°C° 0.5 mm 1 mps 711 mmHg 89%
    18:00 +23°C° 0.2 mm 0 mps 712 mmHg 91%
    19:00 +22°C° 0.2 mm 0 mps 712 mmHg 94%
    20:00 +21°C° 0.2 mm 0 mps 712 mmHg 97%
    21:00 +21°C° 0.2 mm 0 mps 713 mmHg 97%
    22:00 +21°C° 0.2 mm 0 mps 713 mmHg 97%
    23:00 +21°C° 0.2 mm 0 mps 714 mmHg 98%

    Mañana, 23 Mayo, Jueves

    Tiempo Temperatura Precipitaciones Viento Presión Humedad
    00:00 +20°C° 0.3 mm 0 mps 713 mmHg 98%
    01:00 +20°C° 0.3 mm 0 mps 713 mmHg 98%
    02:00 +20°C° 0.3 mm 0 mps 712 mmHg 98%
    03:00 +20°C° 0.2 mm 0 mps 712 mmHg 98%
    04:00 +20°C° 0.2 mm 0 mps 712 mmHg 98%
    05:00 +20°C° 0.2 mm 0 mps 712 mmHg 98%
    06:00 +21°C° 0 mm 0 mps 713 mmHg 94%
    07:00 +22°C° 0 mm 0 mps 713 mmHg 90%
    08:00 +23°C° 0 mm 0 mps 714 mmHg 86%
    09:00 +25°C° 0.1 mm 0 mps 714 mmHg 75%
    10:00 +30°C° 0.1 mm 1 mps 714 mmHg 64%
    11:00 +32°C° 0.1 mm 1 mps 714 mmHg 52%
    12:00 +32°C° 1 mm 1 mps 713 mmHg 58%
    13:00 +31°C° 1 mm 1 mps 713 mmHg 64%
    14:00 +31°C° 1 mm 1 mps 712 mmHg 70%
    15:00 +29°C° 2.3 mm 1 mps 711 mmHg 78%
    16:00 +27°C° 2.3 mm 1 mps 711 mmHg 86%
    17:00 +26°C° 2.3 mm 1 mps 710 mmHg 94%
    18:00 +25°C° 2.4 mm 1 mps 711 mmHg 95%
    19:00 +24°C° 2.4 mm 1 mps 712 mmHg 96%
    20:00 +24°C° 2.4 mm 1 mps 712 mmHg 97%
    21:00 +23°C° 0.9 mm 1 mps 713 mmHg 98%
    22:00 +21°C° 0.9 mm 0 mps 713 mmHg 98%
    23:00 +21°C° 0.9 mm 0 mps 713 mmHg 99%

    Pasado mañana, 24 Mayo, Viernes

    Tiempo Temperatura Precipitaciones Viento Presión Humedad
    00:00 +21°C° 0.7 mm 0 mps 713 mmHg 99%
    01:00 +21°C° 0.7 mm 0 mps 712 mmHg 99%
    02:00 +21°C° 0.7 mm 0 mps 712 mmHg 99%
    03:00 +21°C° 0.5 mm 0 mps 712 mmHg 99%
    04:00 +21°C° 0.5 mm 0 mps 712 mmHg 99%
    05:00 +20°C° 0.5 mm 0 mps 712 mmHg 99%
    06:00 +21°C° 0.1 mm 0 mps 713 mmHg 96%
    07:00 +22°C° 0.1 mm 0 mps 713 mmHg 94%
    08:00 +23°C° 0.1 mm 0 mps 714 mmHg 91%
    09:00 +25°C° 0.1 mm 0 mps 714 mmHg 79%
    10:00 +28°C° 0.1 mm 0 mps 714 mmHg 66%
    11:00 +33°C° 0.1 mm 1 mps 714 mmHg 54%
    12:00 +33°C° 0.3 mm 1 mps 713 mmHg 53%
    13:00 +33°C° 0.3 mm 1 mps 712 mmHg 52%
    14:00 +33°C° 0.3 mm 1 mps 711 mmHg 51%
    15:00 +32°C° 0.6 mm 1 mps 711 mmHg 61%
    16:00 +30°C° 0.6 mm 1 mps 711 mmHg 72%
    17:00 +28°C° 0.6 mm 1 mps 710 mmHg 82%
    18:00 +26°C° 1.7 mm 1 mps 711 mmHg 87%
    19:00 +25°C° 1.7 mm 1 mps 712 mmHg 93%
    20:00 +22°C° 1.7 mm 0 mps 713 mmHg 98%
    21:00 +22°C° 1.5 mm 0 mps 713 mmHg 98%
    22:00 +21°C° 1.5 mm 0 mps 713 mmHg 99%
    23:00 +21°C° 1.5 mm 0 mps 714 mmHg 99%

    25 Mayo, Sábado

    Tiempo Temperatura Precipitaciones Viento Presión Humedad
    00:00 +21°C° 1 mm 0 mps 713 mmHg 99%
    01:00 +21°C° 1 mm 0 mps 713 mmHg 99%
    02:00 +21°C° 1 mm 0 mps 712 mmHg 99%
    03:00 +21°C° 0 mm 0 mps 712 mmHg 99%
    04:00 +20°C° 0 mm 0 mps 712 mmHg 99%
    05:00 +20°C° 0 mm 0 mps 712 mmHg 99%
    06:00 +21°C° 0 mm 0 mps 713 mmHg 96%
    07:00 +22°C° 0 mm 0 mps 713 mmHg 94%
    08:00 +23°C° 0 mm 0 mps 714 mmHg 91%
    09:00 +25°C° 0 mm 0 mps 714 mmHg 78%
    10:00 +30°C° 0 mm 1 mps 714 mmHg 64%
    11:00 +32°C° 0 mm 1 mps 714 mmHg 50%
    12:00 +33°C° 0 mm 1 mps 713 mmHg 49%
    13:00 +33°C° 0 mm 1 mps 712 mmHg 48%
    14:00 +34°C° 0 mm 2 mps 711 mmHg 47%
    15:00 +31°C° 0.7 mm 2 mps 711 mmHg 60%
    16:00 +29°C° 0.7 mm 2 mps 711 mmHg 73%
    17:00 +27°C° 0.7 mm 1 mps 710 mmHg 85%
    18:00 +26°C° 1.8 mm 1 mps 711 mmHg 89%
    19:00 +25°C° 1.8 mm 1 mps 712 mmHg 93%
    20:00 +24°C° 1.8 mm 1 mps 712 mmHg 97%
    21:00 +23°C° 1.4 mm 1 mps 713 mmHg 97%
    22:00 +21°C° 1.4 mm 0 mps 713 mmHg 98%
    23:00 +21°C° 1.4 mm 0 mps 713 mmHg 98%

    26 Mayo, Domingo

    Tiempo Temperatura Precipitaciones Viento Presión Humedad
    00:00 +21°C° 1 mm 0 mps 713 mmHg 99%
    01:00 +21°C° 1 mm 0 mps 712 mmHg 99%
    02:00 +21°C° 1 mm 0 mps 712 mmHg 99%
    03:00 +21°C° 0.6 mm 0 mps 712 mmHg 99%
    04:00 +21°C° 0.6 mm 0 mps 712 mmHg 98%
    05:00 +21°C° 0.6 mm 0 mps 712 mmHg 98%
    06:00 +21°C° 0.3 mm 0 mps 713 mmHg 98%
    07:00 +22°C° 0.3 mm 0 mps 713 mmHg 97%
    08:00 +22°C° 0.3 mm 0 mps 714 mmHg 96%
    09:00 +23°C° 0.3 mm 0 mps 714 mmHg 90%
    10:00 +27°C° 0.3 mm 1 mps 714 mmHg 84%
    11:00 +28°C° 0.3 mm 1 mps 714 mmHg 77%
    12:00 +28°C° 1.4 mm 1 mps 713 mmHg 81%
    13:00 +28°C° 1.4 mm 1 mps 712 mmHg 85%
    14:00 +28°C° 1.4 mm 1 mps 711 mmHg 90%
    15:00 +28°C° 0.9 mm 1 mps 711 mmHg 90%
    16:00 +27°C° 0.9 mm 1 mps 711 mmHg 90%
    17:00 +27°C° 0.9 mm 1 mps 711 mmHg 90%
    18:00 +26°C° 0.6 mm 1 mps 711 mmHg 93%
    19:00 +25°C° 0.6 mm 1 mps 712 mmHg 95%
    20:00 +22°C° 0.6 mm 0 mps 713 mmHg 98%
    21:00 +22°C° 0.4 mm 0 mps 713 mmHg 98%
    22:00 +21°C° 0.4 mm 0 mps 713 mmHg 99%
    23:00 +21°C° 0.4 mm 0 mps 713 mmHg 99%

    27 Mayo, Lunes

    Tiempo Temperatura Precipitaciones Viento Presión Humedad
    00:00 +21°C° 0.3 mm 0 mps 713 mmHg 99%
    01:00 +21°C° 0.3 mm 0 mps 712 mmHg 99%
    02:00 +21°C° 0.3 mm 0 mps 712 mmHg 99%
    03:00 +21°C° 0.4 mm 0 mps 712 mmHg 99%
    04:00 +21°C° 0.4 mm 0 mps 712 mmHg 99%
    05:00 +20°C° 0.4 mm 0 mps 712 mmHg 99%
    06:00 +22°C° 0 mm 0 mps 713 mmHg 95%
    07:00 +23°C° 0 mm 0 mps 713 mmHg 91%
    08:00 +24°C° 0 mm 0 mps 714 mmHg 87%
    09:00 +25°C° 0.1 mm 0 mps 714 mmHg 78%
    10:00 +29°C° 0.1 mm 1 mps 714 mmHg 68%
    11:00 +31°C° 0.1 mm 1 mps 713 mmHg 58%
    12:00 +31°C° 0.3 mm 1 mps 713 mmHg 58%
    13:00 +32°C° 0.3 mm 1 mps 712 mmHg 59%
    14:00 +32°C° 0.3 mm 1 mps 711 mmHg 59%
    15:00 +31°C° 0.7 mm 1 mps 711 mmHg 64%
    16:00 +30°C° 0.7 mm 1 mps 710 mmHg 68%
    17:00 +29°C° 0.7 mm 2 mps 710 mmHg 73%
    18:00 +28°C° 0.6 mm 1 mps 711 mmHg 80%
    19:00 +26°C° 0.6 mm 1 mps 711 mmHg 87%
    20:00 +24°C° 0.6 mm 1 mps 712 mmHg 94%
    21:00 +24°C° 0.4 mm 1 mps 712 mmHg 95%
    22:00 +22°C° 0.4 mm 0 mps 712 mmHg 97%
    23:00 +21°C° 0.4 mm 0 mps 713 mmHg 98%
    Mostrar más